Regional Weather Roundup
Issued by NWS

Home | Current Version | Previous Version | Graphics & Text | Print | Product List | Glossary On
Versions: 1 2 3 4 5 6 7 8 9 10 11 12 13 14 15 16 17 18 19 20 21 22 23 24 25 26 27 28 29 30 31 32 33 34 35 36 37 38 39 40 41 42 43 44 45 46 47 48 49 50
000
ASUS43 KLOT 220704
RWRIL

ILLINOIS REGIONAL WEATHER ROUNDUP
NATIONAL WEATHER SERVICE CHICAGO/ROMEOVILLE IL
200 AM CDT SAT JUL 22 2017

NOTE: "FAIR" INDICATES FEW OR NO CLOUDS BELOW 12,000 FEET WITH NO
SIGNIFICANT WEATHER AND/OR OBSTRUCTIONS TO VISIBILITY.

* THESE STATIONS ARE NOT UNDER NWS QUALITY CONTROL. THEY ALSO MAY NOT
  REPORT WEATHER SUCH AS PRECIPITATION OR FOG.

ILZ001-002-007-009-015-016-024-220800-
NORTHWEST ILLINOIS

CITY           SKY/WX    TMP DP  RH WIND       PRES   REMARKS
MOLINE         CLOUDY    74  67  78 NE18      29.83R THUNDER
STERLING*      RAIN      68  67  96 VRB6      29.87F
SAVANNA*       TSTM      69  68  98 CALM      29.86R
$$

ILZ003-004-008-010-011-017-018-220800-
NORTH CENTRAL ILLINOIS

CITY           SKY/WX    TMP DP  RH WIND       PRES   REMARKS
ROCKFORD       TSTM      73  67  81 W9        29.86R
FREEPORT*      TSTM      67  67  99 SE7       29.82F
ROCHELLE*      TSTM      69  69  99 NW10      29.86R VSB 1
DE KALB*       CLOUDY    70  69  97 NE12      29.83R
PERU*          CLOUDY   N/A N/A N/A NW29G39   29.89R
$$

ILZ005-006-012>014-019>023-220800-
NORTHEAST ILLINOIS

CITY           SKY/WX    TMP DP  RH WIND       PRES   REMARKS
CHICAGO-OHARE  TSTM      73  70  90 S10       29.82F
CHICAGO-MIDWAY TSTM      74  72  93 SW7       29.84S
AURORA         CLOUDY    71  70  96 E8        29.82F
LANSING*       CLOUDY    71  68  90 SW8       29.85F
JOLIET*        CLOUDY    73  73  97 SE8       29.81F
WAUKEGAN       CLOUDY    73  73 100 SW3       29.81F
DUPAGE AIRPORT CLOUDY    71  71 100 SE6       29.82F
WHEELING       TSTM      72  72 100 S8        29.83F
MORRIS*        CLOUDY    71  70  96 SE7       29.80F
ROMEOVILLE*    CLOUDY    72  68  89 NE3       29.82F
NORTHERLY ISL    N/A     73  70  90 CALM        N/A
$$

LMZ740>746-220800-
SOUTHERN LAKE MICHIGAN

STATION/POSITION SKY/WX   TEMP    WIND        PRES    VSBY  WAVE
                          AIR SEA DIR/SP/G                  HT/PER
                          (F)     (DEG/KT/KT) (MB)    (MI)  (FT/S)
SOUTHERN BUOY              72 70  100/ 12/ 14 1010.3          1/ 3
WILMETTE HARBOR            72 72  210/ 12/ 17   N/A           2/ 3
HARRISON CRIB              75     230/ 15/ 19   N/A
BURNHAM HARBOR             73                   N/A
CALUMET HARBOR             72     200/  8/ 11 1010.0F
BURNS HARBOR               72     180/  7/ 13 1010.8F
MICHIGAN CITY              71     150/ 11/ 13   N/A
MICHIGAN CITY 6N           72 74  170/ 14/ 16   N/A           2/ 2
ST. JOSEPH                 73 76  170/ 12/ 16 1010.5F         2/ 2
$$

ILZ025>027-034>036-040-047-049-050-058-095>099-220800-
WEST-CENTRAL ILLINOIS

CITY           SKY/WX    TMP DP  RH WIND       PRES   REMARKS
QUINCY         CLEAR     80  70  71 S8        29.81F HX  83
GALESBURG*     CLOUDY    80  70  72 S12       29.78F HX  83
MACOMB*        CLEAR     83  69  62 SW8       29.81S HX  86
JACKSONVILLE*  CLEAR     82  70  66 S8        29.82S HX  86
PITTSFIELD*    CLEAR     82  71  68 SW9       29.84S HX  87
$$

ILZ028>032-037-038-041>044-048-051>054-059>061-220800-
CENTRAL ILLINOIS

CITY           SKY/WX    TMP DP  RH WIND       PRES   REMARKS
PONTIAC        CLOUDY    71  71  99 SE8       29.84F
BLOOMINGTON    CLOUDY    74  68  81 E9        29.85F
DECATUR        CLOUDY    82  75  79 SW9       29.85R HX  89
PEORIA         CLOUDY    82  74  76 SE6       29.80F HX  88
LACON*         CLOUDY    70  69  96 SE6       29.79F
LINCOLN*       PTCLDY    82  76  83 S5        29.83R HX  89
SPRINGFIELD    CLOUDY    86  74  67 SW13      29.82F HX  94
TAYLORVILLE    CLEAR     81  75  82 SW7       29.85R HX  86
$$

ILZ033-039-045-046-055>057-062-063-220800-
EAST-CENTRAL ILLINOIS

CITY           SKY/WX    TMP DP  RH WIND       PRES   REMARKS
CHAMPAIGN      PTCLDY    80  75  84 S7        29.85R HX  85
RANTOUL*       CLOUDY    78  70  78 NE15      29.88R
MATTOON        CLOUDY    82  77  84 SW7       29.85F HX  90
PARIS*         CLOUDY    80  77  92 SW5       29.88R HX  85
$$

ILZ079-100>102-220800-
SOUTHWEST ILLINOIS

CITY           SKY/WX    TMP DP  RH WIND       PRES   REMARKS
ALTON          CLEAR     83  75  77 SW9       29.85F HX  91
BELLEVILLE     CLEAR     82  75  81 SW5       29.87F HX  88
CAHOKIA*       CLEAR     87  73  62 SW6       29.85F HX  94
SPARTA*        CLEAR     82  76  82 S9        29.89F HX  88
$$

ILZ064>066-069>071-074>076-080>082-084>086-088>090-092>094-220800-
SOUTH-CENTRAL ILLINOIS

CITY           SKY/WX    TMP DP  RH WIND       PRES   REMARKS
CARBONDALE     CLEAR     82  76  81 SW10      29.89F HX  89
CAIRO*         CLEAR     82  76  81 S7        29.91F HX  90
EFFINGHAM*     CLEAR     82  76  80 S6        29.88S HX  90
MARION         CLEAR     82  79  89 SW7       29.90F HX  93
MT. VERNON     CLEAR     82  76  81 SW7       29.88F HX  89
CENTRALIA*     CLEAR     83  77  82 SW9       29.87S HX  92
SALEM*         CLEAR     84  75  74 S8        29.88R HX  92
METROPOLIS*    CLEAR     81  76  85 S3        29.91F HX  87
$$

ILZ067-068-072-073-078-083-087-091-220800-
SOUTHEAST ILLINOIS

CITY           SKY/WX    TMP DP  RH WIND       PRES   REMARKS
LAWRENCEVILLE  CLOUDY    81  76  84 SW7       29.88F HX  87
FLORA*         CLEAR     80  76  88 SW6       29.88S HX  85
FAIRFIELD*     CLEAR     77  76  96 CALM      29.87S
HARRISBURG*    CLEAR     78  76  94 SW5       29.89F HX  81
ROBINSON*      CLOUDY    80  76  86 SW7       29.88F HX  85
CARMI*         CLEAR     77  76  96 S6        29.88F
$$

ABBREVIATIONS USED IN REMARKS
   TC - TEMPERATURE IN CELSIUS
  WCI - WIND CHILL INDEX
   HX - HEAT INDEX
  VSB - VISIBILITY
$$





USA.gov is the U.S. government's official web portal to all federal, state and local government web resources and services.